Probability
0 0 0 0 0 0 0 1 1 1 0 0 1 2 2 1 1 6 14 20 26 28 27 27 26 32 44 55 58 57 53 50 47 43 38 32 28 25 25 26 27 25 21 19
0 0 0 0 0 0 0 0 0 0 0 0 1 2 2 1 1 6 13 19 24 30 33 32 30 35 46 53 54 53 53 50 47 43 37 32 29 26 24 24 25 23 20 19
0 0 0 0 0 0 0 0 0 0 0 0 2 2 2 1 3 6 11 15 23 31 36 36 36 39 46 49 48 48 51 49 45 40 35 31 29 27 24 23 23 22 20 18
0 0 0 0 0 0 0 0 0 0 0 0 1 2 2 3 6 8 10 13 20 29 34 37 39 43 47 46 44 46 48 47 41 36 31 29 29 28 25 23 24 24 21 18
0 0 0 0 0 0 0 0 0 0 0 0 0 1 2 6 8 10 11 12 18 26 31 35 40 45 48 47 45 46 47 45 41 35 30 29 29 28 26 25 26 26 23 20
0 0 0 0 0 0 0 0 0 0 0 0 0 0 2 5 6 7 9 11 16 24 29 33 41 46 47 45 45 49 50 46 42 37 32 32 32 31 30 29 28 27 25 24
0 0 0 0 0 0 0 0 0 0 0 0 0 0 2 3 4 5 8 12 16 22 28 35 42 46 45 42 45 52 53 48 42 37 35 35 35 34 34 33 32 29 26 25
0 0 0 0 0 0 0 0 0 0 0 0 0 2 5 7 6 7 10 15 19 22 28 36 43 45 44 43 46 53 54 49 42 37 36 37 37 36 35 35 33 31 27 23
0 0 0 0 0 0 0 0 0 0 0 0 1 5 12 14 10 9 12 16 19 22 26 34 40 42 43 46 50 53 53 49 42 38 36 36 37 37 35 34 32 29 27 25
0 0 0 0 0 0 0 0 0 0 0 0 1 6 15 18 14 12 13 15 17 20 25 30 36 40 42 46 50 52 51 47 43 39 36 34 35 37 36 34 31 28 27 28
0 0 0 0 0 0 0 0 0 0 0 0 1 6 14 19 17 14 13 14 16 20 24 28 32 36 38 42 47 49 48 45 43 42 38 35 35 36 36 33 30 29 29 30
0 0 0 0 0 0 0 0 0 0 0 0 1 6 14 19 18 16 14 14 17 19 23 27 31 32 35 40 43 44 43 40 39 40 39 36 34 34 35 33 32 32 31 29
0 0 0 0 0 0 0 0 0 0 0 0 1 6 13 17 17 15 15 17 19 21 24 30 34 35 36 39 40 38 37 34 33 34 35 34 32 31 32 33 34 34 31 26
0 0 0 0 0 0 0 0 0 0 0 0 2 6 11 14 15 16 19 21 22 23 28 34 39 40 40 40 38 35 32 31 30 30 31 30 30 30 31 31 32 33 28 22
0 0 0 0 0 0 0 0 1 1 1 1 3 7 11 14 15 17 21 23 22 23 29 35 39 40 38 38 36 34 32 30 29 30 29 28 28 29 29 29 29 29 26 21
1 1 1 0 0 0 0 0 1 2 3 3 4 7 12 15 16 16 18 20 20 19 25 32 35 36 35 35 35 33 31 30 30 29 27 26 25 26 27 27 27 26 24 21
2 3 3 1 0 0 0 0 1 2 3 4 5 7 11 14 15 16 18 19 18 18 23 29 31 32 34 34 34 32 30 31 30 28 25 23 22 24 26 27 27 26 24 23
2 4 4 2 1 0 0 0 1 1 2 3 5 8 10 12 15 19 22 22 21 22 27 29 29 30 32 33 32 31 30 30 28 26 24 22 23 25 27 28 29 28 27 26
2 3 3 2 1 0 0 0 0 1 2 4 7 9 10 12 17 21 23 24 25 26 29 29 28 28 30 29 28 29 28 27 25 24 22 21 23 25 26 27 28 28 27 27
1 2 2 1 0 0 0 2 2 2 4 9 12 12 12 15 19 22 24 24 25 27 28 28 27 28 28 26 25 25 25 25 23 22 21 19 20 21 22 24 25 24 23 23
0 0 1 1 1 1 3 5 6 7 10 15 17 16 16 19 22 24 25 25 25 27 28 29 28 28 27 25 23 22 22 23 22 20 18 16 18 19 20 21 22 21 20 20
0 1 1 1 3 6 8 9 11 12 15 17 17 16 16 19 22 23 24 25 24 25 29 30 29 27 26 25 23 21 21 20 18 16 14 15 17 19 20 20 21 20 18 18
3 3 3 4 6 9 10 11 11 13 13 13 13 12 12 14 17 20 22 24 23 23 25 29 29 27 25 24 22 21 21 18 15 12 12 13 15 17 18 19 20 19 17 16
6 6 6 7 7 6 6 6 7 8 9 8 8 8 9 9 11 14 18 21 22 22 23 26 26 25 23 21 21 21 20 18 14 11 11 11 12 14 16 17 18 17 15 15
6 6 6 6 5 3 1 1 2 4 6 6 6 6 7 7 8 10 13 17 20 22 22 23 22 20 19 19 19 20 21 20 16 12 11 10 10 11 13 16 17 15 13 12
3 4 6 6 4 2 1 0 1 4 6 5 4 5 6 7 8 10 12 13 17 20 22 21 19 18 17 18 19 21 22 21 17 13 11 10 10 10 11 14 15 13 10 9
Wind_Speed
12 12 13 14 16 16 15 13 13 10 9 10 11 11 11 11 11 11 10 9 10 10 10 9 8 9 9 8 8 8 6 6 5 4 3 3 3 2 2 2 2 3 3 3
12 15 15 15 15 15 15 15 15 11 8 8 10 12 12 10 11 10 9 8 10 10 10 9 9 9 10 9 8 8 7 7 5 3 3 3 3 2 2 2 2 3 3 2
15 12 13 14 14 13 14 14 14 12 7 8 10 13 12 11 10 9 8 8 8 9 9 9 9 8 10 9 9 7 6 7 6 5 4 3 3 2 2 2 3 3 3 3
14 13 11 12 12 13 13 13 13 14 11 8 10 10 11 10 9 8 7 7 7 8 9 9 10 9 9 9 8 7 7 6 6 5 5 5 4 3 3 2 2 2 3 3
11 12 13 13 12 13 13 11 12 13 13 12 11 11 8 10 9 8 6 5 7 9 10 9 10 10 9 9 8 7 7 6 6 5 5 4 4 3 2 3 3 3 2 2
13 11 11 11 11 12 11 12 12 13 12 14 13 12 8 7 8 7 7 6 7 8 8 7 8 9 8 8 8 8 7 6 5 5 4 4 4 3 3 3 3 3 2 2
13 15 13 11 12 11 11 10 8 10 10 11 11 11 4 4 7 8 8 7 7 7 7 6 7 9 8 8 8 8 8 7 6 5 4 4 4 3 3 3 3 3 2 2
12 12 12 11 12 10 11 13 10 8 8 8 10 8 3 3 3 4 6 6 7 5 6 7 7 7 7 7 7 8 8 7 7 6 4 4 4 3 3 3 3 3 2 2
8 8 7 9 9 11 12 12 13 12 14 12 7 4 4 4 4 3 4 5 5 5 5 7 7 7 7 6 6 6 8 7 6 6 5 4 4 4 3 3 2 2 1 1
8 9 9 7 8 12 13 11 8 10 10 11 8 6 5 5 4 5 4 3 4 5 5 6 6 7 7 7 5 5 6 7 6 6 5 5 4 3 3 3 3 2 2 1
10 10 10 9 10 10 10 11 9 9 10 10 8 2 4 6 4 5 5 5 4 4 6 6 5 6 6 7 6 6 5 5 5 5 5 4 4 4 3 3 3 2 2 2
8 8 9 10 8 9 11 10 9 8 9 10 9 1 5 6 5 5 5 5 4 4 4 6 6 6 6 6 6 5 5 4 4 4 4 4 3 3 3 3 3 2 2 2
6 6 8 9 8 9 9 10 10 9 7 9 10 2 5 4 4 4 6 5 5 4 4 5 6 5 5 5 5 4 4 4 4 4 4 4 3 3 3 2 2 3 2 2
6 8 10 10 7 7 9 11 11 11 9 10 10 3 5 3 2 3 4 5 4 5 4 4 4 4 4 4 4 4 4 4 4 4 4 4 3 3 3 3 2 3 3 3
6 10 12 13 13 11 11 12 12 11 10 11 8 4 4 4 2 2 3 4 4 4 4 4 4 3 3 3 3 3 3 3 3 3 4 4 3 3 3 2 2 2 3 3
5 8 10 13 13 12 12 11 11 11 10 11 7 4 3 4 3 2 1 3 3 2 3 3 3 3 3 2 2 2 2 2 3 3 3 3 3 3 3 2 2 2 2 2
6 6 9 11 12 12 12 10 9 9 9 9 7 3 2 4 4 3 2 2 2 2 3 3 3 2 2 1 1 1 1 2 2 2 2 2 3 3 3 3 2 2 2 2
7 7 6 9 10 13 6 5 7 7 6 4 3 0 2 3 4 3 2 2 1 2 2 2 2 1 1 1 1 1 1 1 1 1 1 1 2 2 2 2 2 1 1 2
7 6 6 7 10 9 6 4 6 6 5 2 1 0 1 3 3 3 3 2 2 2 3 3 2 1 1 1 1 1 1 1 1 1 1 1 1 1 1 1 1 1 1 2
8 6 7 8 9 8 3 3 5 5 4 4 3 2 2 1 1 2 3 3 2 2 2 2 2 2 2 0 1 1 1 0 0 1 1 1 1 1 1 1 1 1 1 2
8 8 9 10 9 5 1 3 3 4 1 5 5 3 2 2 2 3 3 3 3 2 1 2 2 2 2 2 1 1 1 0 0 1 1 1 1 1 1 1 1 1 2 2
7 6 7 7 8 4 4 3 2 3 4 4 5 4 4 4 4 3 3 3 2 2 2 1 2 2 2 1 1 1 0 1 1 1 1 1 1 2 1 1 1 2 2 2
3 3 2 1 1 1 3 3 3 2 3 3 3 3 3 3 3 3 3 3 2 1 1 1 1 1 1 1 1 1 1 1 1 1 1 1 2 1 1 2 2 2 2 2
2 3 3 2 2 0 1 2 1 2 2 3 3 3 3 2 2 2 2 2 1 1 0 0 0 1 1 1 1 1 1 1 2 2 1 2 2 2 1 1 2 1 2 2
6 5 3 3 3 2 2 3 2 1 2 2 2 2 2 2 1 1 1 1 1 1 1 0 0 1 1 1 1 1 1 1 2 2 2 3 3 2 1 1 1 1 1 1
6 6 5 4 1 1 2 2 2 1 1 1 1 1 0 0 1 0 0 1 0 0 1 1 1 1 1 2 2 2 2 2 2 3 3 2 3 2 2 2 1 0 2 4
Wind_Direction
213 227 231 230 232 246 258 265 262 244 229 224 231 237 233 217 206 198 193 185 179 177 171 163 161 151 143 143 145 147 152 146 147 151 162 163 163 157 145 134 139 149 152 149
218 229 237 243 245 245 253 259 264 256 228 231 237 242 234 219 212 205 196 194 186 179 169 159 157 151 147 145 148 153 151 152 162 160 165 170 161 160 150 139 143 152 150 155
230 232 229 239 245 248 249 255 262 267 248 239 246 247 233 222 212 198 196 198 193 175 167 161 160 154 152 152 153 157 155 157 169 162 163 159 147 147 146 152 157 163 158 159
239 243 237 234 240 247 251 249 258 262 257 242 232 253 235 217 208 197 191 192 186 173 169 167 166 161 159 158 156 149 148 155 165 167 174 168 168 174 172 163 154 158 164 168
239 238 241 241 236 243 253 260 262 262 261 263 245 249 232 202 203 200 188 189 182 182 173 164 164 160 157 155 154 150 146 152 164 175 178 176 175 171 154 151 151 158 166 169
250 246 243 244 241 240 252 257 259 258 255 250 245 249 244 207 199 197 183 187 184 174 159 153 152 148 150 152 152 149 149 152 159 175 174 181 179 168 157 150 152 169 171 172
239 236 234 235 241 232 238 243 243 237 239 246 239 238 233 186 178 182 174 180 167 152 145 143 146 148 149 153 153 151 153 157 161 169 177 181 181 173 168 164 168 180 178 175
237 233 222 218 226 234 231 240 246 256 255 255 243 230 190 143 144 152 151 149 140 144 139 137 139 138 144 147 151 151 154 160 164 168 173 173 179 182 181 183 182 183 189 178
258 248 221 216 216 236 237 238 253 267 271 267 247 201 151 133 119 104 115 130 132 137 133 131 130 139 144 143 141 148 154 158 165 170 166 162 172 186 184 182 187 192 187 187
273 273 242 224 222 232 243 247 252 257 269 273 258 218 179 165 158 148 140 138 131 140 133 124 126 139 140 135 134 135 143 158 165 167 172 174 177 183 179 180 187 187 191 204
260 270 254 231 223 233 233 241 249 264 268 269 272 251 122 141 150 152 135 122 124 133 131 126 118 115 123 131 136 134 140 149 157 162 163 168 168 172 174 180 189 189 186 196
250 268 263 246 237 237 240 241 235 246 263 274 280 303 96 115 124 126 122 119 114 118 122 128 123 123 127 128 133 138 138 149 151 151 154 160 156 163 168 183 192 193 200 196
270 263 257 244 234 229 242 242 244 244 256 263 267 200 116 99 105 115 118 117 119 118 120 120 120 122 121 122 130 137 144 150 149 153 157 149 158 168 180 183 188 197 203 200
246 253 253 257 259 255 250 250 248 244 245 254 260 198 143 134 114 109 118 119 121 122 118 105 104 112 117 122 133 146 150 146 147 148 153 159 168 177 182 183 194 200 194 204
244 249 255 265 268 262 259 259 255 253 256 261 271 239 156 137 118 108 117 122 121 123 126 117 114 107 108 119 134 142 146 142 148 151 155 163 171 172 171 183 192 199 196 210
228 257 264 267 267 264 257 256 253 256 262 266 268 279 141 130 130 112 116 138 127 133 136 128 124 120 113 116 137 138 136 144 152 161 169 166 170 173 176 183 182 196 197 204
244 245 257 260 257 264 256 259 255 252 257 265 267 265 149 148 162 163 177 149 148 158 148 130 113 105 120 139 154 183 168 157 171 177 167 165 172 179 178 186 175 192 204 203
251 257 258 265 265 254 253 260 267 258 255 271 278 251 175 156 138 118 120 117 110 111 114 107 117 137 142 127 116 116 148 155 168 174 192 200 195 185 179 176 173 190 214 216
225 235 248 255 254 252 253 258 273 264 261 300 307 302 199 118 134 127 119 108 98 74 81 87 87 94 97 111 131 138 146 183 210 211 209 223 215 200 202 200 192 199 223 233
210 213 236 252 255 252 265 316 313 268 236 35 28 9 92 115 221 108 90 86 83 84 85 101 114 92 81 42 126 151 223 187 288 297 280 272 240 234 245 229 196 209 238 240
208 216 230 250 256 265 341 324 302 248 30 33 43 40 55 51 51 80 83 85 81 80 99 110 122 117 148 183 182 185 254 255 271 298 292 276 259 246 246 249 241 224 235 238
216 226 230 244 252 263 14 14 23 31 16 32 35 30 35 68 90 99 89 87 87 85 83 91 113 127 138 152 175 200 270 292 283 275 281 277 262 259 251 233 247 240 239 234
233 251 256 260 229 66 43 62 66 33 7 27 31 32 36 54 60 66 75 81 80 81 89 82 99 109 123 147 184 216 257 260 258 257 261 259 253 253 219 227 237 234 232 237
287 290 237 230 215 215 42 66 52 41 26 40 42 25 29 35 31 48 55 63 50 48 70 103 114 148 167 188 209 223 243 245 239 236 238 231 222 226 214 234 239 236 251 243
315 309 279 238 246 275 333 346 339 35 53 53 36 21 9 3 21 38 25 53 39 21 324 257 210 198 216 223 224 230 240 233 224 235 236 238 235 225 218 226 250 232 222 197
290 287 278 275 284 264 292 314 318 342 4 24 8 18 325 273 95 105 50 78 90 296 298 257 235 232 235 232 234 234 226 233 229 230 238 242 238 222 221 216 194 98 190 168